User: anonymous
Location: Santa Barbara
(34.4500°N, 119.7700°W)
Time: 23:15:24
(UTC-07:00)
Language:

Cosmos 1892 Rocket - Orbit

View from above orbital plane
View from above orbital plane
View from above satellite
View from above satellite

Ground track
Ground track

The orbit data is extracted from the following two-line orbital elements,

1 18422U 87088B   14242.07406847  .00000337  00000-0  39037-4 0  3293
2 18422 082.5102 054.3940 0019690 200.6583 299.4277 14.82415543450355
Epoch (UTC): 30 August 2014 01:46:39
Eccentricity: 0.0019690
inclination: 82.5102°
perigee height: 608 km
apogee height: 635 km
right ascension of ascending node: 54.3940°
argument of perigee: 200.6583°
revolutions per day: 14.82415543
mean anomaly at epoch: 299.4277°
orbit number at epoch: 45035

The dashed part of the orbit path shows where the satellite is in the earth's shadow,  

DLR